BAW9MS EGLL-EHAM

Flight info

Callsign BAW9MS
Flight time 0h 38m
Altitude 23000
Route BPK Q295 BRAIN M197 REDFA
Aircraft A319/M-SDE3FGHIRWY/LB1

Departure

Time 2026-05-04 19:30
Airport London Heathrow Airport (EGLL)

Arrival

Time 2026-05-04 20:08
Airport Amsterdam Airport Schiphol (EHAM)
Time Latitude Longitude Altitude Speed Heading
2026-05-04 18:48 51.47248 -0.48217 89 ft 0 kts 90°
2026-05-04 19:12 51.47248 -0.48242 88 ft 4 kts 90°
2026-05-04 19:12 51.47249 -0.48320 88 ft 4 kts 109°
2026-05-04 19:12 51.47263 -0.48350 87 ft 4 kts 158°
2026-05-04 19:13 51.47288 -0.48358 87 ft 3 kts 180°
2026-05-04 19:13 51.47305 -0.48358 87 ft 0 kts 180°
2026-05-04 19:20 51.47288 -0.48358 87 ft 4 kts 179°
2026-05-04 19:21 51.47239 -0.48357 88 ft 9 kts 179°
2026-05-04 19:21 51.47168 -0.48357 87 ft 12 kts 179°
2026-05-04 19:21 51.47076 -0.48356 86 ft 15 kts 179°
2026-05-04 19:21 51.46964 -0.48355 86 ft 17 kts 180°
2026-05-04 19:22 51.46872 -0.48355 86 ft 10 kts 180°
2026-05-04 19:22 51.46838 -0.48354 86 ft 4 kts 179°
2026-05-04 19:22 51.46822 -0.48354 86 ft 0 kts 179°
2026-05-04 19:23 51.46814 -0.48354 86 ft 3 kts 179°
2026-05-04 19:23 51.46773 -0.48353 86 ft 8 kts 177°
2026-05-04 19:23 51.46741 -0.48274 88 ft 10 kts 96°
2026-05-04 19:23 51.46681 -0.48211 86 ft 13 kts 180°
2026-05-04 19:24 51.46583 -0.48213 87 ft 15 kts 180°
2026-05-04 19:24 51.46496 -0.48215 89 ft 7 kts 181°
2026-05-04 19:24 51.46477 -0.48156 88 ft 3 kts 86°
2026-05-04 19:24 51.46477 -0.48155 88 ft 0 kts 86°
2026-05-04 19:29 51.46477 -0.48150 88 ft 4 kts 86°
2026-05-04 19:29 51.46482 -0.47782 87 ft 69 kts 90°
2026-05-04 19:30 51.46485 -0.46654 92 ft 131 kts 89°
2026-05-04 19:30 51.46496 -0.44982 392 ft 154 kts 88°
2026-05-04 19:30 51.46505 -0.43276 1140 ft 152 kts 86°
2026-05-04 19:30 51.46617 -0.41537 1682 ft 165 kts 71°
2026-05-04 19:31 51.47209 -0.39867 2062 ft 184 kts 49°
2026-05-04 19:31 51.48091 -0.38208 2439 ft 208 kts 50°
2026-05-04 19:31 51.49088 -0.36316 2827 ft 238 kts 50°
2026-05-04 19:31 51.50198 -0.34203 3604 ft 254 kts 50°
2026-05-04 19:32 51.51346 -0.31987 4656 ft 261 kts 50°
2026-05-04 19:32 51.52399 -0.29563 5638 ft 270 kts 63°
2026-05-04 19:32 51.53063 -0.26710 6662 ft 275 kts 71°
2026-05-04 19:32 51.53703 -0.23798 7679 ft 278 kts 68°
2026-05-04 19:33 51.54797 -0.21200 8568 ft 286 kts 47°
2026-05-04 19:33 51.56142 -0.18812 9522 ft 294 kts 50°
2026-05-04 19:33 51.57434 -0.16283 10388 ft 300 kts 51°
2026-05-04 19:33 51.58784 -0.13594 10922 ft 318 kts 51°
2026-05-04 19:34 51.60203 -0.10698 11321 ft 338 kts 51°
2026-05-04 19:34 51.61670 -0.07707 12121 ft 343 kts 51°
2026-05-04 19:34 51.63156 -0.04686 12965 ft 346 kts 51°
2026-05-04 19:34 51.64648 -0.01635 13796 ft 351 kts 51°
2026-05-04 19:35 51.66170 0.01458 14509 ft 354 kts 51°
2026-05-04 19:35 51.67716 0.04558 15218 ft 358 kts 51°
2026-05-04 19:35 51.69293 0.07702 15896 ft 363 kts 51°
2026-05-04 19:35 51.70893 0.10882 16610 ft 367 kts 51°
2026-05-04 19:36 51.72518 0.14096 17269 ft 373 kts 51°
2026-05-04 19:36 51.74167 0.17345 17956 ft 377 kts 51°
2026-05-04 19:36 51.75842 0.20641 18582 ft 382 kts 51°
2026-05-04 19:36 51.77542 0.23968 19182 ft 386 kts 51°
2026-05-04 19:37 51.79197 0.27409 19816 ft 389 kts 59°
2026-05-04 19:37 51.80317 0.31382 20416 ft 390 kts 75°
2026-05-04 19:37 51.81010 0.35645 20890 ft 399 kts 77°
2026-05-04 19:37 51.81702 0.40086 21015 ft 415 kts 77°
2026-05-04 19:38 51.82405 0.44696 21145 ft 430 kts 77°
2026-05-04 19:38 51.83123 0.49450 21352 ft 440 kts 77°
2026-05-04 19:38 51.83852 0.54278 21866 ft 442 kts 77°
2026-05-04 19:38 51.84580 0.59105 22485 ft 441 kts 77°
2026-05-04 19:39 51.85305 0.63922 22926 ft 441 kts 78°
2026-05-04 19:39 51.86025 0.68733 23046 ft 440 kts 78°
2026-05-04 19:39 51.86744 0.73548 23040 ft 440 kts 78°
2026-05-04 19:39 51.87453 0.78294 23046 ft 438 kts 78°
2026-05-04 19:40 51.88168 0.83084 23039 ft 439 kts 78°
2026-05-04 19:40 51.88877 0.87884 23047 ft 439 kts 78°
2026-05-04 19:40 51.89583 0.92687 23046 ft 439 kts 78°
2026-05-04 19:40 51.90300 0.97564 23041 ft 439 kts 78°
2026-05-04 19:41 51.91000 1.02318 23046 ft 440 kts 78°
2026-05-04 19:41 51.91705 1.07139 23044 ft 440 kts 78°
2026-05-04 19:41 51.92410 1.11971 23047 ft 441 kts 78°
2026-05-04 19:41 51.93111 1.16801 23054 ft 441 kts 78°
2026-05-04 19:42 51.93822 1.21698 23046 ft 441 kts 78°
2026-05-04 19:42 51.94515 1.26465 23045 ft 440 kts 78°
2026-05-04 19:42 51.95222 1.31358 23048 ft 440 kts 78°
2026-05-04 19:42 51.95909 1.36129 23042 ft 440 kts 78°
2026-05-04 19:43 51.96602 1.40966 23040 ft 440 kts 78°
2026-05-04 19:43 51.97289 1.45799 23035 ft 440 kts 78°
2026-05-04 19:43 51.97975 1.50638 23040 ft 440 kts 78°
2026-05-04 19:43 51.98662 1.55485 23018 ft 441 kts 78°
2026-05-04 19:44 51.99351 1.60343 23022 ft 442 kts 78°
2026-05-04 19:44 52.00038 1.65199 23021 ft 443 kts 78°
2026-05-04 19:44 52.00725 1.70074 23031 ft 443 kts 78°
2026-05-04 19:44 52.01409 1.74958 23023 ft 443 kts 78°
2026-05-04 19:45 52.02089 1.79835 23020 ft 444 kts 78°
2026-05-04 19:45 52.02767 1.84717 23038 ft 444 kts 78°
2026-05-04 19:45 52.03444 1.89613 23041 ft 444 kts 78°
2026-05-04 19:45 52.04118 1.94504 23024 ft 444 kts 78°
2026-05-04 19:46 52.04789 1.99394 23017 ft 444 kts 78°
2026-05-04 19:46 52.05460 2.04293 23028 ft 445 kts 78°
2026-05-04 19:46 52.06131 2.09201 23012 ft 445 kts 78°
2026-05-04 19:46 52.06800 2.14115 23032 ft 445 kts 78°
2026-05-04 19:47 52.07467 2.19033 23018 ft 446 kts 78°
2026-05-04 19:47 52.08133 2.23947 23019 ft 446 kts 78°
2026-05-04 19:47 52.08797 2.28871 23021 ft 446 kts 78°
2026-05-04 19:47 52.09459 2.33800 23021 ft 446 kts 78°
2026-05-04 19:48 52.10119 2.38727 23020 ft 446 kts 78°
2026-05-04 19:48 52.10780 2.43658 23019 ft 446 kts 78°
2026-05-04 19:48 52.11599 2.48455 22873 ft 434 kts 69°
2026-05-04 19:48 52.12907 2.52802 22528 ft 423 kts 59°
2026-05-04 19:49 52.14389 2.56853 22245 ft 413 kts 59°
2026-05-04 19:49 52.15864 2.60906 21825 ft 416 kts 59°
2026-05-04 19:49 52.17334 2.64959 21425 ft 415 kts 59°
2026-05-04 19:49 52.18793 2.68995 21038 ft 413 kts 59°
2026-05-04 19:50 52.20242 2.73014 20647 ft 409 kts 59°
2026-05-04 19:50 52.21661 2.76961 20260 ft 408 kts 59°
2026-05-04 19:50 52.23108 2.80995 19870 ft 404 kts 59°
2026-05-04 19:50 52.24504 2.84893 19488 ft 403 kts 59°
2026-05-04 19:51 52.25914 2.88836 19106 ft 401 kts 59°
2026-05-04 19:51 52.27315 2.92747 18725 ft 398 kts 59°
2026-05-04 19:51 52.28709 2.96647 18339 ft 396 kts 59°
2026-05-04 19:51 52.30091 3.00517 17927 ft 393 kts 59°
2026-05-04 19:52 52.31467 3.04372 17559 ft 392 kts 59°
2026-05-04 19:52 52.32830 3.08196 17179 ft 388 kts 59°
2026-05-04 19:52 52.34186 3.12015 16815 ft 387 kts 59°
2026-05-04 19:52 52.35529 3.15810 16443 ft 383 kts 59°
2026-05-04 19:53 52.36429 3.18356 16195 ft 383 kts 59°
2026-05-04 19:53 52.37759 3.22114 15833 ft 380 kts 59°
2026-05-04 19:53 52.39075 3.25835 15471 ft 376 kts 59°
2026-05-04 19:53 52.40383 3.29537 15114 ft 374 kts 59°
2026-05-04 19:54 52.41675 3.33212 14762 ft 371 kts 59°
2026-05-04 19:54 52.42957 3.36871 14408 ft 369 kts 59°
2026-05-04 19:54 52.44210 3.40520 14037 ft 366 kts 62°
2026-05-04 19:54 52.45113 3.44349 13680 ft 366 kts 73°
2026-05-04 19:55 52.45703 3.48384 13327 ft 363 kts 76°
2026-05-04 19:55 52.46277 3.52394 12978 ft 361 kts 76°
2026-05-04 19:55 52.46849 3.56397 12708 ft 360 kts 76°
2026-05-04 19:55 52.47420 3.60388 12450 ft 359 kts 76°
2026-05-04 19:56 52.47988 3.64378 12191 ft 360 kts 76°
2026-05-04 19:56 52.48557 3.68382 11936 ft 359 kts 77°
2026-05-04 19:56 52.49119 3.72343 11549 ft 354 kts 77°
2026-05-04 19:56 52.49673 3.76255 10992 ft 351 kts 77°
2026-05-04 19:57 52.50220 3.80131 10564 ft 344 kts 77°
2026-05-04 19:57 52.50745 3.83874 10424 ft 329 kts 77°
2026-05-04 19:57 52.51254 3.87506 10225 ft 324 kts 77°
2026-05-04 19:57 52.51752 3.91095 9904 ft 321 kts 79°
2026-05-04 19:58 52.51849 3.94738 9530 ft 319 kts 98°
2026-05-04 19:58 52.51230 3.98215 9160 ft 317 kts 117°
2026-05-04 19:58 52.49994 4.01146 8783 ft 311 kts 135°
2026-05-04 19:58 52.48502 4.03703 8424 ft 309 kts 136°
2026-05-04 19:59 52.47023 4.06250 8067 ft 308 kts 135°
2026-05-04 19:59 52.45555 4.08787 7714 ft 305 kts 134°
2026-05-04 19:59 52.44097 4.11307 7361 ft 304 kts 134°
2026-05-04 19:59 52.42648 4.13808 7016 ft 301 kts 134°
2026-05-04 20:00 52.41203 4.16295 6682 ft 300 kts 134°
2026-05-04 20:00 52.39763 4.18766 6302 ft 299 kts 134°
2026-05-04 20:00 52.38358 4.21173 5919 ft 293 kts 134°
2026-05-04 20:00 52.36948 4.23587 5528 ft 287 kts 134°
2026-05-04 20:01 52.35596 4.25897 5147 ft 282 kts 134°
2026-05-04 20:01 52.34258 4.28186 4807 ft 276 kts 133°
2026-05-04 20:01 52.32939 4.30442 4440 ft 272 kts 133°
2026-05-04 20:01 52.31642 4.32657 4080 ft 269 kts 133°
2026-05-04 20:02 52.30354 4.34852 3730 ft 267 kts 133°
2026-05-04 20:02 52.29076 4.37026 3368 ft 264 kts 133°
2026-05-04 20:02 52.27810 4.39179 3006 ft 260 kts 133°
2026-05-04 20:02 52.26561 4.41266 2664 ft 254 kts 136°
2026-05-04 20:03 52.25152 4.42940 2401 ft 248 kts 146°
2026-05-04 20:03 52.23722 4.44396 2260 ft 237 kts 144°
2026-05-04 20:03 52.22453 4.46025 2139 ft 229 kts 131°
2026-05-04 20:03 52.21524 4.48113 2036 ft 225 kts 115°
2026-05-04 20:04 52.21001 4.50406 2011 ft 209 kts 97°
2026-05-04 20:04 52.21024 4.52685 2015 ft 194 kts 74°
2026-05-04 20:04 52.21540 4.54654 2010 ft 187 kts 56°
2026-05-04 20:04 52.22218 4.56397 2034 ft 173 kts 56°
2026-05-04 20:05 52.22851 4.58025 1993 ft 169 kts 56°
2026-05-04 20:05 52.23470 4.59615 1960 ft 164 kts 54°
2026-05-04 20:05 52.24092 4.61184 1807 ft 162 kts 55°
2026-05-04 20:05 52.24660 4.62665 1585 ft 147 kts 56°
2026-05-04 20:06 52.25178 4.64029 1364 ft 135 kts 55°
2026-05-04 20:06 52.25646 4.65260 1186 ft 121 kts 54°
2026-05-04 20:06 52.26092 4.66419 1013 ft 119 kts 54°
2026-05-04 20:06 52.26537 4.67543 835 ft 119 kts 54°
2026-05-04 20:07 52.26970 4.68679 737 ft 118 kts 54°
2026-05-04 20:07 52.27413 4.69829 521 ft 119 kts 54°
2026-05-04 20:07 52.27856 4.70969 405 ft 118 kts 54°
2026-05-04 20:07 52.28291 4.72114 270 ft 118 kts 53°
2026-05-04 20:08 52.28729 4.73254 121 ft 117 kts 52°
2026-05-04 20:08 52.29158 4.74356 3 ft 106 kts 58°
2026-05-04 20:08 52.29484 4.75205 -3 ft 72 kts 58°
2026-05-04 20:08 52.29677 4.75688 -2 ft 32 kts 45°
2026-05-04 20:09 52.29857 4.75871 -1 ft 21 kts 28°
2026-05-04 20:09 52.29978 4.75971 -1 ft 19 kts 29°
2026-05-04 20:09 52.30058 4.76154 -1 ft 22 kts 58°
2026-05-04 20:09 52.30146 4.76383 -1 ft 26 kts 58°
2026-05-04 20:10 52.30251 4.76661 -1 ft 31 kts 58°
2026-05-04 20:10 52.30359 4.76944 -1 ft 20 kts 58°
2026-05-04 20:10 52.30433 4.77132 -1 ft 12 kts 57°
2026-05-04 20:10 52.30498 4.77141 -1 ft 13 kts 327°
2026-05-04 20:11 52.30582 4.77053 -1 ft 14 kts 329°
2026-05-04 20:11 52.30652 4.77019 -1 ft 12 kts
2026-05-04 20:11 52.30701 4.77025 -1 ft 5 kts
2026-05-04 20:11 52.30717 4.77026 -1 ft 0 kts